Погода в Казахе

Азербайджан     41˚05′20″N   45˚20′48″E
темп.,
°C
ветер,
м/с
пор.,
м/с
влажн.,
%
обл.,
%
осадки,
мм/ч
давл.,
гПа
погр.,
м
6 декабря, вс
вс601:00+2˚св2398100 1.0 1026169
04:00+1˚св2398100 2.4 1026161
07:00+1˚св2398100 0.6 1026169
10:00+1˚св1297100 0.9 1026133
13:00+1˚ссв2296100 0.3 1025179
16:00+1˚ссв2297100 0.8 1024206
19:00всв2397100 0.8 1027206
22:00−1˚св2398100 1.5 1028159
7 декабря, пн
пн701:00−1˚св2298100 0.6 1029142
04:00−2˚ссв2298100 1.4 1029147
07:00−2˚св1197100 0.4 1030116
10:00−2˚всв119799 0.5 1031160
13:00−1˚св2295100 0.2 1029251
16:00−1˚св2297100 0.5 1029224
19:00−2˚св1198100 0.3 1030156
22:00−2˚св1198100 0.6 1031126
8 декабря, вт
вт801:00−2˚ссв0097100 0.4 1031132
04:00−3˚с0196100 0.6 103086
07:00−4˚юз118973 0.0 102950
10:00−2˚в118240 0.0 1029141
13:00−1˚всв218926 0.0 1027344
16:00−1˚всв118863 0.0 1026260
19:00−2˚вюв119397 0.0 102828
22:00−2˚в119395 0.0 102852
9 декабря, ср
ср901:00−2˚св1194100 0.0 1029115
04:00−3˚юв009699 0.1 102838
07:00−3˚ююз1193100 0.0 102821
10:00−1˚всв1190100 0.0 1028144
13:00св2292100 0.1 1026214
16:00св1195100 0.6 1025154
19:00−1˚св0199100 0.4 102642
22:00−1˚св0098100 1.1 102751
10 декабря, чт
чт1001:00−1˚св1199100 1.1 102861
04:00−1˚с1199100 1.8 102941
07:00−1˚юз019795 0.1 102955
10:00св119490 0.1 102993
13:00св119983 0.0 1028145
16:00+1˚ссв119791 0.0 102799
19:00св0198100 0.0 102956
22:00вюв0198100 0.1 103058